Weather History for KMIB - June, 2013

Change the Weather History Date:

Thursday, June 27, 2013

  Actual Average Record
Temperature  
Mean Temperature 70 °F -  
Max Temperature 80 °F 75 °F 87 °F (2002)
Min Temperature 60 °F 53 °F 42 °F (1999)
Cooling Degree Days 5    
Growing Degree Days 20 (Base 50)    
Moisture  
Dew Point 55 °F    
Average Humidity 57    
Maximum Humidity 83    
Minimum Humidity 36    
Precipitation  
Precipitation 0.00 in - - ()
Sea Level Pressure  
Sea Level Pressure 29.94 in    
Wind  
Wind Speed 11 mph (WNW)    
Max Wind Speed 21 mph    
Max Gust Speed 29 mph    
Visibility 10 miles    
Events      
Averages and records for this station are not official NWS values.
T = Trace of Precipitation, MM = Missing Value Source: NWS Daily Summary

Daily Weather History Graph

Daily Weather History Graph

Search for Another Location

Airport or City:

Trip Planner

Search our weather history database for the weather conditions in past years. The results will help you decide how hot, cold, wet, or windy it might be!

Date:

Astronomy

Jun. 27, 2013 Rise Set
Actual Time 5:46 AM CDT 9:50 PM CDT
Civil Twilight 5:04 AM CDT 10:32 PM CDT
Nautical Twilight 4:05 AM CDT 11:31 PM CDT
Astronomical Twilight 2:16 AM CDT 1:18 AM CDT
Moon No Moon Rise 11:15 AM CDT (6/27)
Length of Visible Light 17h 28m
Length of Day
16h 04m
Waning Gibbous, 76% of the Moon is Illuminated
Jun 27
Waning Gibbous
Jun 29
Last Quarter
Jul 8
New
Jul 15
First Quarter
Jul 22
Full

Hourly Weather History & Observations

Time (CDT) Temp. Heat Index Dew Point Humidity Pressure Visibility Wind Dir Wind Speed Gust Speed Precip Events Conditions
12:55 AM 66.9 °F - 57.4 °F 71% 29.86 in 10.0 mi West 9.2 mph - N/A   Partly Cloudy
1:55 AM 63.9 °F - 57.9 °F 81% 29.87 in 10.0 mi West 5.8 mph - N/A   Partly Cloudy
2:55 AM 64.0 °F - 58.3 °F 82% 29.87 in 10.0 mi West 8.1 mph - N/A   Partly Cloudy
3:55 AM 63.1 °F - 57.7 °F 83% 29.88 in 10.0 mi WSW 11.5 mph - N/A   Clear
4:55 AM 61.7 °F - 56.1 °F 82% 29.88 in 10.0 mi West 10.4 mph - N/A   Clear
5:55 AM 60.1 °F - 54.9 °F 83% 29.90 in 10.0 mi West 5.8 mph - N/A   Clear
6:55 AM 63.0 °F - 54.3 °F 73% 29.90 in 10.0 mi West 6.9 mph - N/A   Clear
7:55 AM 67.3 °F - 54.9 °F 64% 29.91 in 10.0 mi West 9.2 mph - N/A   Clear
8:55 AM 71.6 °F - 54.5 °F 55% 29.91 in 10.0 mi West 12.7 mph - N/A   Clear
9:55 AM 73.6 °F - 53.8 °F 50% 29.93 in 10.0 mi West 16.1 mph 21.9 mph N/A   Clear
10:55 AM 76.1 °F - 51.6 °F 42% 29.92 in 10.0 mi West 19.6 mph 26.5 mph N/A   Clear
11:55 AM 77.2 °F - 50.9 °F 40% 29.93 in 10.0 mi WNW 18.4 mph 26.5 mph N/A   Clear
12:55 PM 78.8 °F - 49.6 °F 36% 29.93 in 10.0 mi West 20.7 mph 27.6 mph N/A   Clear
1:55 PM 79.2 °F - 53.1 °F 40% 29.94 in 10.0 mi NW 16.1 mph 28.8 mph N/A   Clear
2:55 PM 79.3 °F - 55.0 °F 43% 29.95 in 10.0 mi WNW 13.8 mph 27.6 mph N/A   Clear
3:57 PM 79.9 °F - 54.7 °F 42% 29.96 in 10.0 mi WNW 15.0 mph 27.6 mph N/A   Partly Cloudy
4:57 PM 80.2 °F 80.1 °F 53.8 °F 40% 29.97 in 10.0 mi NW 13.8 mph 23.0 mph N/A   Partly Cloudy
5:57 PM 80.6 °F 80.3 °F 53.4 °F 39% 29.98 in 10.0 mi WNW 11.5 mph 19.6 mph N/A   Partly Cloudy
6:57 PM 79.7 °F - 52.3 °F 39% 29.98 in 10.0 mi WNW 11.5 mph 20.7 mph N/A   Partly Cloudy
7:57 PM 78.6 °F - 51.6 °F 39% 29.98 in 10.0 mi NW 9.2 mph 19.6 mph N/A   Partly Cloudy
8:57 PM 76.5 °F - 54.1 °F 46% 29.99 in 10.0 mi WNW 8.1 mph - N/A   Clear
9:57 PM 71.8 °F - 56.3 °F 58% 30.00 in 10.0 mi WNW 5.8 mph - N/A   Clear
10:57 PM 66.6 °F - 57.6 °F 73% 30.01 in 10.0 mi West 5.8 mph - N/A   Clear
11:55 PM 66.0 °F - 57.9 °F 75% 30.02 in 10.0 mi West 9.2 mph - N/A   Clear